Meath Environmental Platform

Observations for Trim Patrick St

Time AQI Temp °C Hum % Pres Pa CO μg/m³ H₂S μg/m³ NO μg/m³ NO₂ μg/m³ O₃ μg/m³ SO₂ μg/m³ PM1 μg/m³ PM2.5 μg/m³ PM10 μg/m³
Sunday 2 August 2026
18:54 3 19.8 55 70,219 0 19.82 0.99 54.19 43.65 4.96 4.57 9.09 10
18:53 3 19.9 55 70,107 0 22.97 1.03 42.25 50.82 5.64 4.57 9.12 10.04
18:52 3 19.9 55 70,046 0 23.97 1.1 81.94 30.92 5.44 4.57 9.89 10.88
18:51 3 20 54 69,867 0 20.58 1.13 53.38 44.45 4.82 2.86 8.41 9.25
18:50 3 20 54 69,810 0 19.74 1.12 49.04 44.1 5.44 2.86 6.91 7.6
18:49 3 20 54 69,795 0 19.24 1.15 51.09 41.47 4.75 4.57 9.22 10.14
18:47 3 20.1 54 69,677 0 22.66 1.15 68.02 26.44 5.64 3.71 8.4 9.25
18:45 3 20.2 54 69,534 0 23.53 1.09 63.29 45.04 5.99 6.29 11.48 12.62
18:44 3 20.2 54 69,448 0 23.95 1.06 57.72 53.73 6.29 8 13.72 15.09
18:43 3 20.3 54 69,371 0 25.53 1.04 60.04 37.54 6.78 6.29 11.45 12.6
18:42 3 20.2 54 69,296 0 28.69 0.93 75.59 51.87 7.26 8 12.96 14.25
18:41 3 20.3 53 69,224 0 25.03 0.96 72.85 41.49 5.98 5.43 10.01 11.01
18:39 3 20.3 52 69,104 0 22.42 0.99 45.15 50.76 7.11 5.43 11.58 12.74
18:38 3 20.3 53 69,092 0 24.77 0.99 66.97 47.14 5.92 7.14 13.07 14.38
18:37 3 20.4 52 69,045 0 24.51 1.06 53.03 55.68 7.05 11.43 18.39 20.23
18:35 3 20.4 52 69,039 0 22.93 1.06 61.03 36.76 6.28 7.14 14.64 16.1
18:33 3 20.5 52 68,999 0 21.71 1.05 50.66 53.34 7.24 8.86 17.68 19.45
18:32 3 20.5 52 68,981 0 26.19 1.05 49.46 64.86 8.1 13.14 21.46 23.61
18:31 3 20.6 52 68,932 0 25.72 1.1 65.72 48.98 7.07 7.14 12.38 13.62
18:27 3 20.7 51 68,904 0 25.3 1.11 58.97 70.59 7.25 8.86 16.22 17.84